Cloud_Cover
0 0 0 0 0 0 0 0 0 0 0 0 0 4 0 0 0 0 0 0 4 4 0 1 25 93 93 81 100 100 100 93 84 97 100 43 5 5 5 5 0 0 0 0
0 0 0 0 0 0 0 0 0 0 0 0 0 5 22 4 0 0 0 0 3 6 85 54 81 70 100 100 98 100 98 98 78 40 14 5 12 59 32 0 0 0 0 1
0 0 0 0 0 0 0 0 0 0 0 1 0 60 47 70 9 5 5 5 5 5 73 91 100 100 100 93 100 100 99 86 74 70 43 75 100 4 3 1 1 0 1 1
0 0 0 0 0 0 0 0 0 0 0 1 0 25 52 66 86 50 70 59 12 89 100 99 100 100 100 100 100 68 6 23 96 92 100 35 3 0 0 0 0 0 0 0
0 0 0 0 0 0 0 0 0 0 0 1 35 13 100 35 34 5 46 98 99 100 100 100 100 100 96 98 98 5 8 96 75 6 0 0 0 5 8 27 95 100 44 93
0 0 0 0 0 0 0 0 0 0 2 22 26 5 100 61 33 12 5 11 50 83 83 98 98 84 100 58 5 13 16 3 0 0 2 3 4 16 38 14 56 65 100 98
0 0 0 0 0 0 3 0 0 3 70 12 10 56 99 100 100 81 93 100 100 100 92 5 5 32 5 5 4 0 0 0 2 38 14 63 5 0 6 81 100 98 69 67
0 0 0 0 2 3 5 20 32 31 18 98 14 92 100 100 99 97 25 13 53 4 5 5 5 4 3 0 0 0 0 0 0 0 5 1 20 59 99 82 97 100 100 100
0 0 2 3 4 3 10 86 55 96 6 73 95 100 100 83 62 94 100 46 5 5 5 2 0 5 4 0 0 2 0 0 0 4 5 12 39 77 100 100 100 99 70 100
0 1 0 4 12 5 12 20 100 90 88 100 100 100 100 75 92 94 5 5 1 3 0 4 5 5 4 0 4 0 0 5 5 11 72 100 100 100 59 16 85 100 100 100
0 0 0 4 8 6 22 20 76 100 100 100 100 100 100 100 69 6 1 0 0 1 5 5 5 5 1 5 2 0 0 5 49 81 99 91 100 48 92 100 100 100 100 100
0 0 0 0 1 5 68 86 100 100 100 100 100 100 83 27 6 0 0 0 0 5 5 5 5 3 5 2 0 0 5 25 64 100 100 100 100 100 100 100 100 100 100 100
1 2 1 5 24 90 97 100 100 100 100 100 100 100 100 38 0 0 2 5 5 5 5 5 4 5 4 5 5 5 70 70 100 100 100 100 100 100 100 100 100 100 100 100
2 5 28 81 92 100 100 100 100 98 99 100 100 100 92 40 4 5 5 5 5 5 5 0 0 5 5 5 5 26 84 100 100 100 100 100 100 100 100 100 100 100 100 100
6 5 7 79 100 99 100 100 100 100 100 100 100 84 8 5 5 2 1 5 5 5 0 0 2 5 27 55 70 100 100 100 100 100 100 100 100 100 100 100 100 100 100 100
6 42 72 100 100 99 100 100 100 100 97 91 56 8 6 5 5 4 5 5 5 3 0 12 96 86 98 100 100 100 100 100 100 100 100 100 100 100 100 100 100 100 100 100
14 65 99 100 100 99 97 100 100 100 100 71 45 57 5 2 5 5 5 5 3 34 99 81 92 100 99 100 100 100 100 100 100 100 100 100 100 100 100 100 100 100 100 100
24 14 96 100 100 100 100 100 100 100 100 100 56 11 0 4 5 1 0 0 76 100 92 95 91 100 100 100 100 100 100 100 100 100 100 100 100 100 100 100 100 100 100 100
8 98 93 100 100 100 100 100 100 100 100 100 99 10 0 0 3 3 0 75 100 100 100 100 100 100 100 100 100 100 100 100 100 100 100 100 100 100 100 100 100 100 100 100
19 79 100 100 100 100 100 100 100 100 100 99 100 67 0 1 0 3 100 100 100 100 100 100 96 100 100 100 100 100 100 100 100 100 100 100 100 100 100 100 100 100 100 100
82 100 100 100 100 100 97 100 99 95 64 98 100 90 18 18 33 17 100 100 100 100 100 100 99 100 100 100 100 100 100 100 100 100 100 100 100 100 100 100 100 100 100 100
100 100 100 100 100 100 98 97 87 80 99 100 98 53 15 46 100 100 100 100 100 100 100 100 100 100 100 100 100 100 100 100 100 100 100 100 100 100 100 100 100 100 100 100
100 99 100 100 100 100 100 100 98 100 100 98 81 25 0 45 99 100 100 100 100 100 100 100 100 100 100 100 100 100 100 100 100 100 100 100 100 100 100 100 100 100 100 100
100 100 100 100 100 100 100 98 76 96 75 46 24 1 0 1 41 36 100 100 100 100 100 100 100 100 100 100 100 100 100 100 100 100 100 100 100 100 100 100 100 100 100 100
100 100 100 100 100 100 100 84 19 36 44 8 0 5 5 0 14 85 100 100 100 100 100 100 99 100 100 100 100 100 100 100 100 100 100 100 100 100 100 100 100 100 100 100
100 100 100 100 100 100 100 100 55 31 22 3 0 3 5 5 7 78 100 100 100 100 100 100 100 100 100 100 100 100 100 100 100 100 100 100 100 100 100 100 100 100 100 100